�������l�o���
Date,Time,MP-1(��Sv/h),MP-2(��Sv/h),MP-3(��Sv/h),MP-4(��Sv/h),MP-5(��Sv/h),MP-6(��Sv/h),MP-7(��Sv/h),MP-8(��Sv/h),����,����(m/s),���J
2019/11/23,00:00,0.695,0.990,0.666,1.234,0.866,0.403,0.702,0.667,�k��,4.0,�L
2019/11/23,00:10,0.694,0.989,0.665,1.232,0.865,0.403,0.700,0.668,�k��,4.9,�L
2019/11/23,00:20,0.695,0.988,0.665,1.235,0.867,0.404,0.703,0.668,�k��,4.7,�L
2019/11/23,00:30,0.697,0.989,0.667,1.236,0.869,0.404,0.700,0.668,�k��,4.1,�L
2019/11/23,00:40,0.696,0.993,0.667,1.236,0.870,0.405,0.703,0.668,�k��,4.3,�L
2019/11/23,00:50,0.696,0.992,0.667,1.237,0.868,0.404,0.702,0.667,�k��,5.5,�L
2019/11/23,01:00,0.695,0.989,0.667,1.234,0.867,0.402,0.701,0.666,�k��,4.9,�L
2019/11/23,01:10,0.694,0.989,0.665,1.234,0.867,0.404,0.702,0.668,�k��,6.0,�L
2019/11/23,01:20,0.695,0.990,0.663,1.232,0.865,0.403,0.701,0.670,�k��,4.6,�L
2019/11/23,01:30,0.694,0.987,0.664,1.231,0.864,0.404,0.701,0.667,�k��,4.4,�L
2019/11/23,01:40,0.694,0.988,0.664,1.232,0.865,0.400,0.701,0.666,�k��,5.5,�L
2019/11/23,01:50,0.694,0.986,0.664,1.231,0.865,0.402,0.701,0.667,�k��,5.5,�L
2019/11/23,02:00,0.695,0.987,0.664,1.232,0.865,0.401,0.701,0.667,�k��,5.2,�L
2019/11/23,02:10,0.693,0.988,0.663,1.231,0.864,0.402,0.701,0.667,�k��,5.6,�L
2019/11/23,02:20,0.694,0.988,0.664,1.232,0.864,0.404,0.701,0.666,�k��,5.6,�L
2019/11/23,02:30,0.695,0.988,0.666,1.231,0.863,0.403,0.702,0.668,�k��,5.2,�L
2019/11/23,02:40,0.695,0.987,0.663,1.234,0.865,0.402,0.700,0.669,�k��,6.0,�L
2019/11/23,02:50,0.694,0.990,0.665,1.234,0.867,0.402,0.701,0.668,�k��,6.7,�L
2019/11/23,03:00,0.695,0.990,0.663,1.232,0.865,0.402,0.702,0.668,�k��,6.3,�L
2019/11/23,03:10,0.695,0.991,0.664,1.233,0.867,0.403,0.702,0.668,�k��,6.3,�L
2019/11/23,03:20,0.694,0.989,0.664,1.234,0.866,0.403,0.703,0.667,�k��,6.3,�L
2019/11/23,03:30,0.694,0.989,0.665,1.234,0.866,0.403,0.701,0.667,�k��,5.8,�L
2019/11/23,03:40,0.695,0.989,0.664,1.234,0.866,0.403,0.701,0.667,�k��,6.6,�L
2019/11/23,03:50,0.695,0.987,0.664,1.232,0.868,0.403,0.702,0.667,�k��,6.3,�L
2019/11/23,04:00,0.695,0.989,0.666,1.235,0.866,0.403,0.703,0.668,�k��,6.9,�L
2019/11/23,04:10,0.697,0.990,0.663,1.235,0.867,0.404,0.703,0.667,�k��,6.3,�L
2019/11/23,04:20,0.694,0.989,0.664,1.233,0.866,0.403,0.700,0.667,�k��,6.4,�L
2019/11/23,04:30,0.695,0.990,0.664,1.237,0.867,0.403,0.703,0.667,�k��,6.4,�L
2019/11/23,04:40,0.694,0.990,0.667,1.232,0.866,0.403,0.703,0.668,�k�k��,6.6,�L
2019/11/23,04:50,0.696,0.991,0.666,1.235,0.868,0.403,0.704,0.667,�k�k��,6.7,�L
2019/11/23,05:00,0.696,0.991,0.666,1.234,0.867,0.402,0.702,0.667,�k�k��,6.4,�L
2019/11/23,05:10,0.697,0.989,0.665,1.237,0.866,0.402,0.703,0.668,�k�k��,6.9,�L
2019/11/23,05:20,0.697,0.988,0.665,1.233,0.867,0.403,0.704,0.669,�k�k��,6.4,�L
2019/11/23,05:30,0.695,0.990,0.664,1.235,0.868,0.402,0.702,0.668,�k�k��,6.4,�L
2019/11/23,05:40,0.696,0.990,0.665,1.235,0.868,0.403,0.702,0.667,�k�k��,6.4,�L
2019/11/23,05:50,0.696,0.990,0.667,1.236,0.869,0.403,0.703,0.668,�k�k��,6.3,�L
2019/11/23,06:00,0.697,0.992,0.666,1.237,0.868,0.401,0.703,0.667,�k��,6.3,�L
2019/11/23,06:10,0.697,0.991,0.666,1.237,0.869,0.402,0.703,0.668,�k�k��,6.6,�L
2019/11/23,06:20,0.695,0.992,0.667,1.234,0.871,0.402,0.703,0.667,�k�k��,6.6,�L
2019/11/23,06:30,0.696,0.991,0.665,1.235,0.870,0.403,0.702,0.668,�k�k��,6.3,�L
2019/11/23,06:40,0.694,0.992,0.666,1.235,0.869,0.404,0.702,0.668,�k�k��,6.3,�L
2019/11/23,06:50,0.697,0.991,0.668,1.238,0.869,0.401,0.702,0.668,�k�k��,6.9,�L
2019/11/23,07:00,0.696,0.992,0.666,1.236,0.868,0.402,0.701,0.668,�k�k��,6.7,�L
2019/11/23,07:10,0.695,0.993,0.665,1.236,0.869,0.403,0.700,0.668,�k�k��,6.1,�L
2019/11/23,07:20,0.696,0.992,0.666,1.235,0.868,0.403,0.702,0.668,�k�k��,6.9,�L
2019/11/23,07:30,0.695,0.991,0.667,1.237,0.869,0.402,0.704,0.668,�k��,6.3,�L
2019/11/23,07:40,0.696,0.992,0.667,1.237,0.870,0.404,0.704,0.668,�k��,6.3,�L
2019/11/23,07:50,0.696,0.992,0.667,1.237,0.869,0.402,0.702,0.668,�k�k��,6.0,�L
2019/11/23,08:00,0.696,0.993,0.667,1.239,0.870,0.403,0.703,0.669,�k�k��,5.7,�L
2019/11/23,08:10,0.695,0.992,0.666,1.239,0.871,0.403,0.703,0.667,�k�k��,6.4,�L
2019/11/23,08:20,0.695,0.994,0.668,1.238,0.871,0.403,0.701,0.669,�k�k��,6.6,�L
2019/11/23,08:30,0.696,0.993,0.667,1.239,0.870,0.402,0.703,0.669,�k��,6.7,�L
2019/11/23,08:40,0.696,0.993,0.666,1.238,0.872,0.402,0.703,0.667,�k�k��,7.1,��
2019/11/23,08:50,0.697,0.995,0.666,1.241,0.873,0.401,0.704,0.670,�k�k��,6.0,��
2019/11/23,09:00,0.695,0.993,0.667,1.241,0.871,0.401,0.703,0.668,�k�k��,5.2,�L
2019/11/23,09:10,0.695,0.995,0.668,1.241,0.872,0.401,0.703,0.669,�k�k��,5.5,�L
2019/11/23,09:20,0.695,0.994,0.669,1.239,0.872,0.401,0.703,0.670,�k�k��,5.3,�L
2019/11/23,09:30,0.695,0.995,0.668,1.240,0.872,0.403,0.702,0.670,�k�k��,4.5,�L
2019/11/23,09:40,0.696,0.998,0.668,1.237,0.872,0.403,0.703,0.670,�k�k��,5.3,�L
2019/11/23,09:50,0.697,0.994,0.668,1.240,0.872,0.402,0.702,0.668,�k�k��,4.5,�L
2019/11/23,10:00,0.695,0.993,0.667,1.240,0.870,0.402,0.703,0.669,�k�k��,4.3,�L
2019/11/23,10:10,0.698,0.994,0.667,1.241,0.875,0.402,0.703,0.670,�k�k��,4.4,�L
2019/11/23,10:20,0.695,0.994,0.668,1.239,0.873,0.403,0.705,0.669,�k�k��,3.8,�L
2019/11/23,10:30,0.697,0.994,0.667,1.239,0.871,0.402,0.702,0.668,�k�k��,3.9,�L
2019/11/23,10:40,0.697,0.995,0.668,1.239,0.872,0.403,0.703,0.671,�k�k��,4.1,�L
2019/11/23,10:50,0.696,0.994,0.668,1.238,0.871,0.403,0.704,0.668,�k�k��,4.9,�L
2019/11/23,11:00,0.697,0.995,0.667,1.239,0.873,0.403,0.702,0.670,�k�k��,5.5,��
2019/11/23,11:10,0.698,0.994,0.669,1.237,0.871,0.402,0.704,0.669,�k�k��,5.2,�L
2019/11/23,11:20,0.697,0.993,0.668,1.238,0.873,0.403,0.702,0.669,�k�k��,4.6,��
2019/11/23,11:30,0.696,0.994,0.667,1.240,0.873,0.402,0.704,0.670,�k��,5.8,��
2019/11/23,11:40,0.696,0.994,0.667,1.239,0.872,0.403,0.704,0.668,�k�k��,5.8,�L
2019/11/23,11:50,0.698,0.996,0.668,1.239,0.873,0.404,0.703,0.670,�k�k��,5.2,�L
2019/11/23,12:00,0.696,0.993,0.669,1.239,0.874,0.402,0.702,0.670,�k�k��,5.0,�L
2019/11/23,12:10,0.698,0.997,0.670,1.241,0.873,0.403,0.704,0.669,�k�k��,4.9,��
2019/11/23,12:20,0.699,0.995,0.670,1.242,0.872,0.404,0.703,0.669,�k�k��,4.9,�L
2019/11/23,12:30,0.697,0.996,0.669,1.239,0.870,0.402,0.703,0.670,�k�k��,6.3,�L
2019/11/23,12:40,0.698,0.995,0.667,1.240,0.872,0.403,0.702,0.669,�k�k��,5.6,��
2019/11/23,12:50,0.697,0.995,0.670,1.240,0.873,0.403,0.704,0.671,�k�k��,5.3,�L
2019/11/23,13:00,0.696,0.995,0.669,1.240,0.873,0.402,0.703,0.667,�k�k��,5.6,�L
2019/11/23,13:10,0.697,0.996,0.670,1.239,0.872,0.404,0.703,0.669,�k�k��,5.2,�L
2019/11/23,13:20,0.697,0.995,0.668,1.240,0.872,0.402,0.702,0.669,�k�k��,5.2,��
2019/11/23,13:30,0.695,0.996,0.668,1.239,0.873,0.402,0.703,0.669,�k�k��,5.0,��
2019/11/23,13:40,0.695,0.993,0.669,1.237,0.872,0.402,0.703,0.670,�k�k��,4.4,�L
2019/11/23,13:50,0.696,0.995,0.666,1.242,0.872,0.401,0.704,0.671,�k�k��,5.6,��
2019/11/23,14:00,0.697,0.992,0.669,1.240,0.871,0.402,0.704,0.670,�k�k��,5.6,�L
2019/11/23,14:10,0.697,0.995,0.669,1.239,0.869,0.402,0.704,0.669,�k�k��,5.8,�L
2019/11/23,14:20,0.697,0.993,0.669,1.239,0.870,0.403,0.703,0.672,�k�k��,5.2,�L
2019/11/23,14:30,0.696,0.994,0.670,1.240,0.871,0.402,0.702,0.670,�k�k��,5.0,�L
2019/11/23,14:40,0.697,0.994,0.668,1.237,0.872,0.403,0.703,0.670,�k�k��,4.6,�L
2019/11/23,14:50,0.697,0.994,0.669,1.240,0.872,0.402,0.705,0.668,�k�k��,4.4,�L
2019/11/23,15:00,0.694,0.994,0.668,1.239,0.872,0.403,0.705,0.671,�k�k��,4.4,�L
2019/11/23,15:10,0.696,0.989,0.667,1.239,0.870,0.403,0.703,0.668,�k�k��,4.7,�L
2019/11/23,15:20,0.696,0.990,0.668,1.239,0.869,0.402,0.704,0.670,�k�k��,4.2,�L
2019/11/23,15:30,0.695,0.991,0.668,1.238,0.870,0.404,0.704,0.669,�k�k��,3.8,�L
2019/11/23,15:40,0.694,0.993,0.668,1.235,0.869,0.404,0.703,0.671,�k�k��,4.1,�L
2019/11/23,15:50,0.694,0.989,0.665,1.236,0.869,0.403,0.704,0.669,�k�k��,4.4,�L
2019/11/23,16:00,0.695,0.989,0.667,1.236,0.867,0.403,0.702,0.668,�k�k��,3.9,�L
2019/11/23,16:10,0.693,0.985,0.665,1.235,0.867,0.403,0.703,0.669,�k�k��,3.8,�L
2019/11/23,16:20,0.690,0.983,0.664,1.234,0.866,0.403,0.702,0.668,�k�k��,3.8,�L
2019/11/23,16:30,0.689,0.979,0.664,1.228,0.865,0.403,0.701,0.668,�k�k��,4.5,�L
2019/11/23,16:40,0.691,0.979,0.662,1.228,0.865,0.403,0.701,0.668,�k�k��,5.8,�L
2019/11/23,16:50,0.692,0.981,0.664,1.228,0.866,0.401,0.700,0.669,�k�k��,6.0,�L
2019/11/23,17:00,0.690,0.983,0.664,1.229,0.866,0.404,0.701,0.668,�k�k��,5.8,��
2019/11/23,17:10,0.691,0.983,0.663,1.229,0.864,0.402,0.700,0.668,�k�k��,6.3,�L
2019/11/23,17:20,0.692,0.984,0.664,1.230,0.866,0.402,0.701,0.667,�k��,6.4,�L
2019/11/23,17:30,0.692,0.985,0.666,1.228,0.866,0.402,0.702,0.669,�k�k��,6.3,��
2019/11/23,17:40,0.691,0.983,0.666,1.229,0.866,0.401,0.702,0.669,�k�k��,6.0,��
2019/11/23,17:50,0.691,0.987,0.664,1.226,0.868,0.401,0.700,0.668,�k�k��,5.3,�L
2019/11/23,18:00,0.691,0.986,0.665,1.229,0.868,0.402,0.701,0.669,�k�k��,5.5,�L
2019/11/23,18:10,0.691,0.986,0.665,1.230,0.868,0.402,0.700,0.669,�k�k��,5.6,�L
2019/11/23,18:20,0.692,0.986,0.665,1.229,0.866,0.403,0.701,0.667,�k�k��,5.5,�L
2019/11/23,18:30,0.692,0.986,0.666,1.229,0.867,0.402,0.703,0.667,�k�k��,5.2,�L
2019/11/23,18:40,0.693,0.987,0.665,1.229,0.868,0.401,0.702,0.668,�k�k��,5.5,�L
2019/11/23,18:50,0.692,0.987,0.665,1.229,0.869,0.400,0.703,0.670,�k�k��,5.5,�L
2019/11/23,19:00,0.690,0.990,0.667,1.233,0.867,0.401,0.702,0.670,�k�k��,4.6,�L
2019/11/23,19:10,0.692,0.987,0.666,1.230,0.869,0.402,0.703,0.668,�k�k��,5.2,�L
2019/11/23,19:20,0.693,0.987,0.665,1.229,0.867,0.403,0.701,0.667,�k�k��,5.5,�L
2019/11/23,19:30,0.693,0.986,0.666,1.228,0.867,0.402,0.702,0.669,�k�k��,4.4,�L
2019/11/23,19:40,0.691,0.987,0.666,1.228,0.868,0.403,0.702,0.668,�k�k��,5.3,�L
2019/11/23,19:50,0.694,0.988,0.666,1.230,0.866,0.403,0.702,0.667,�k�k��,4.9,��
2019/11/23,20:00,0.690,0.987,0.664,1.230,0.869,0.402,0.703,0.669,�k�k��,5.0,��
2019/11/23,20:10,0.693,0.986,0.664,1.230,0.867,0.401,0.702,0.668,�k�k��,4.4,�L
2019/11/23,20:20,0.692,0.990,0.664,1.231,0.867,0.404,0.700,0.670,�k�k��,4.9,�L
2019/11/23,20:30,0.694,0.988,0.667,1.230,0.867,0.403,0.702,0.669,�k�k��,5.5,�L
2019/11/23,20:40,0.693,0.990,0.667,1.232,0.869,0.401,0.701,0.669,�k�k��,4.9,��
2019/11/23,20:50,0.693,0.987,0.666,1.230,0.867,0.402,0.702,0.668,�k�k��,4.9,��
2019/11/23,21:00,0.693,0.990,0.666,1.231,0.869,0.402,0.703,0.670,�k�k��,4.5,��
2019/11/23,21:10,0.695,0.987,0.666,1.232,0.869,0.402,0.701,0.669,�k�k��,4.5,��
2019/11/23,21:20,0.693,0.984,0.665,1.232,0.868,0.401,0.703,0.670,�k�k��,4.4,�L
2019/11/23,21:30,0.694,0.987,0.665,1.232,0.868,0.403,0.703,0.667,�k�k��,5.2,�L
2019/11/23,21:40,0.692,0.990,0.667,1.231,0.868,0.403,0.701,0.667,�k�k��,5.5,�L
2019/11/23,21:50,0.694,0.989,0.665,1.231,0.867,0.403,0.701,0.669,�k�k��,6.0,�L
2019/11/23,22:00,0.692,0.987,0.665,1.230,0.868,0.402,0.701,0.667,�k�k��,6.0,�L
2019/11/23,22:10,0.692,0.986,0.666,1.230,0.868,0.403,0.702,0.667,�k�k��,5.5,�L
2019/11/23,22:20,0.694,0.985,0.664,1.230,0.867,0.403,0.701,0.669,�k�k��,5.3,�L
2019/11/23,22:30,0.693,0.984,0.664,1.228,0.870,0.402,0.703,0.669,�k�k��,5.0,�L
2019/11/23,22:40,0.695,0.986,0.665,1.228,0.869,0.401,0.699,0.669,�k�k��,6.0,�L
2019/11/23,22:50,0.694,0.985,0.666,1.228,0.865,0.403,0.701,0.670,�k�k��,5.2,�L
2019/11/23,23:00,0.694,0.986,0.666,1.227,0.866,0.404,0.701,0.668,�k�k��,4.9,�L
2019/11/23,23:10,0.692,0.985,0.664,1.226,0.864,0.404,0.701,0.668,�k�k��,4.7,�L
2019/11/23,23:20,0.691,0.985,0.665,1.223,0.864,0.404,0.700,0.667,�k�k��,4.4,�L
2019/11/23,23:30,0.691,0.982,0.666,1.220,0.863,0.404,0.699,0.668,�k�k��,4.2,�L
2019/11/23,23:40,0.691,0.979,0.663,1.220,0.862,0.404,0.699,0.667,�k�k��,3.8,�L
2019/11/23,23:50,0.691,0.980,0.665,1.220,0.864,0.404,0.701,0.666,�k�k��,3.8,�L
